Theta_e
309 308 308 308 308 309 310 310 310 309 309 311 309 309 308 307 307 305 303 302 302 303 306 310 316 328 330 332 333 334 333 332 332 331 331 331 331 330 330 329 328 327 328 328
308 308 307 308 309 309 308 309 309 310 309 308 308 308 308 306 306 305 305 303 303 304 304 306 309 315 326 329 331 333 333 333 332 331 330 330 330 329 329 329 328 328 327 327
308 308 308 308 308 309 308 308 308 310 310 309 309 306 306 306 305 306 305 306 306 305 305 305 306 309 315 325 329 332 333 333 333 332 331 330 330 329 329 329 328 328 328 327
308 307 309 308 308 307 308 308 308 310 307 308 305 304 305 306 305 305 306 307 307 305 304 304 306 307 309 317 326 330 332 333 333 333 332 330 330 329 328 328 327 327 328 329
308 306 308 309 309 307 308 308 309 308 307 307 307 305 305 305 307 306 305 305 306 306 303 304 306 308 308 311 319 327 330 332 333 332 332 331 330 329 329 328 327 327 326 326
308 307 307 308 308 308 306 307 306 305 305 308 306 306 306 306 307 307 306 304 303 302 301 300 307 307 308 310 314 318 321 327 331 332 332 331 331 330 329 328 328 327 327 325
307 308 307 307 308 308 307 306 307 308 308 309 305 306 307 306 305 304 305 303 305 303 304 304 306 307 310 311 311 311 311 310 312 320 330 332 332 331 330 330 329 328 328 326
309 309 307 307 308 308 307 307 309 309 310 307 305 307 308 306 305 303 304 304 304 305 304 305 306 309 313 314 314 314 313 312 311 309 309 315 330 331 330 331 330 328 325 326
308 308 306 307 307 308 308 307 306 307 298 308 306 305 306 306 305 305 306 304 304 304 304 305 307 309 312 314 315 316 315 313 310 308 307 307 311 325 329 330 330 327 324 323
307 309 308 308 308 308 307 307 310 307 306 308 305 306 306 306 306 304 303 305 304 305 305 304 305 308 310 313 315 315 315 316 314 313 313 313 312 316 325 326 326 324 323 324
308 309 310 308 308 308 307 307 307 308 307 308 306 304 302 306 306 304 303 302 302 304 304 303 304 307 309 310 313 314 315 315 316 316 317 319 320 321 322 322 322 322 323 325
309 311 311 308 307 306 307 308 308 308 306 305 307 306 303 302 303 303 303 301 301 301 303 303 304 305 306 308 312 313 312 313 314 315 316 317 318 318 319 319 320 322 322 321
310 308 307 310 308 308 307 307 307 306 305 306 306 306 303 305 306 305 303 303 301 301 302 302 302 303 305 307 309 311 312 312 313 314 315 315 315 316 316 316 317 317 317 316
310 309 309 310 308 308 309 308 307 308 310 307 307 306 307 305 304 306 308 307 305 303 303 302 301 302 304 306 307 309 311 311 311 312 314 314 315 315 314 314 314 313 312 311
309 306 309 307 307 308 308 309 309 310 310 308 307 305 305 303 303 302 303 306 306 305 303 302 301 300 303 305 306 307 308 310 309 310 311 312 312 311 310 309 308 308 306 305
308 309 307 305 307 307 306 307 308 309 309 308 308 306 303 302 303 302 303 304 305 305 304 302 301 302 303 304 305 306 306 308 310 309 309 309 309 309 308 306 305 304 303 303
309 305 307 307 308 307 307 308 306 307 307 307 307 308 304 303 303 303 303 302 304 305 304 302 303 303 303 305 305 305 305 306 307 308 306 305 305 304 302 302 302 301 301 300
308 309 306 307 306 311 308 305 306 306 306 306 306 306 304 304 302 302 301 302 302 303 303 301 302 303 304 305 305 305 304 304 304 303 302 302 301 300 299 299 299 299 298 297
306 307 304 309 297 305 308 305 304 306 307 305 305 306 305 303 304 304 300 300 302 303 304 304 304 304 304 305 304 303 301 301 301 300 299 299 298 298 298 298 297 296 294 293
305 307 311 293 305 307 305 305 303 304 308 304 306 307 306 302 306 308 302 300 299 302 303 304 304 304 304 303 303 301 299 298 298 298 297 296 296 297 296 295 293 293 292 292
305 303 311 298 309 302 303 305 304 307 308 303 303 305 305 304 307 304 302 303 302 302 302 303 302 302 302 302 301 298 297 296 297 295 295 294 295 294 293 293 292 291 291 291
308 310 311 305 310 312 301 304 309 306 303 304 304 304 303 301 302 302 301 299 297 295 296 298 297 298 299 299 298 296 295 296 294 293 293 292 292 292 291 291 291 291 290 289
310 308 307 310 310 303 300 304 303 300 302 303 304 304 303 301 299 298 297 295 293 293 293 295 295 294 295 296 297 294 294 293 291 291 290 290 290 290 290 290 290 289 289 289
306 302 305 307 305 303 303 301 300 300 301 301 301 300 298 301 297 297 294 293 291 291 291 292 292 291 291 293 295 297 293 291 291 290 289 289 289 289 289 289 288 288 288 287
302 303 300 300 301 300 301 301 299 297 296 297 296 298 299 296 295 294 293 291 290 290 289 291 290 289 290 292 293 293 292 290 289 288 287 287 287 288 287 286 287 287 286 286
299 303 309 310 300 301 300 299 297 297 298 297 297 297 297 296 295 293 292 291 289 288 288 288 289 290 289 289 290 289 289 289 288 287 286 286 286 285 285 285 283 282 283 282
Wind_Speed
3 4 6 7 6 7 6 6 5 3 3 4 7 6 10 6 4 8 9 9 10 12 21 32 33 37 35 37 38 39 40 38 38 33 32 33 35 33 30 29 28 26 26 25
3 5 10 11 9 6 6 5 3 2 1 3 2 11 10 5 7 8 10 10 11 8 8 17 28 29 38 40 40 41 42 40 39 37 32 29 28 29 32 30 30 29 27 26
7 8 7 9 5 8 6 6 5 4 2 1 2 7 6 7 5 7 9 13 9 13 10 9 16 28 31 34 42 41 42 42 40 39 33 30 26 27 27 32 32 31 30 28
6 7 12 6 7 6 6 7 6 7 5 4 3 5 5 4 8 7 13 14 15 11 7 6 11 17 30 35 35 41 40 40 39 39 36 35 30 27 32 30 32 31 30 29
7 9 6 7 7 9 8 7 8 5 3 3 2 2 7 4 7 11 10 12 15 12 8 9 13 19 24 29 27 30 33 35 35 37 38 37 32 29 24 30 30 27 29 30
7 2 8 10 4 6 9 7 7 4 2 2 7 6 5 5 9 6 5 7 9 8 8 8 7 9 12 15 19 20 20 24 30 32 36 36 33 29 28 26 26 25 28 25
2 3 3 4 7 1 4 7 2 1 2 5 2 3 11 6 10 7 9 8 3 4 5 5 6 6 7 9 10 12 14 15 17 20 27 34 35 34 32 31 27 27 26 25
10 5 6 5 7 8 7 8 6 7 5 5 4 6 6 8 8 9 6 3 4 6 6 7 7 7 5 5 6 8 12 15 16 19 22 22 28 33 33 30 27 25 22 21
7 3 2 1 4 12 5 6 6 6 3 3 4 5 11 7 9 2 4 4 7 7 6 7 8 9 10 9 7 7 7 8 11 14 17 20 22 24 26 24 25 24 19 17
6 4 1 1 3 2 6 8 2 3 4 4 4 5 5 7 8 8 8 9 8 5 7 7 9 12 11 10 9 8 8 7 6 7 9 11 15 18 17 18 17 15 16 14
5 4 2 3 7 9 4 5 2 4 5 5 2 6 8 10 11 10 11 8 9 9 8 7 8 12 11 10 9 9 8 8 9 8 9 10 11 13 15 14 11 10 11 12
2 5 4 10 1 2 3 7 9 5 5 3 3 8 6 10 10 8 9 9 8 7 6 5 8 11 11 11 12 12 10 10 9 9 10 9 11 11 11 9 8 9 11 10
8 2 3 4 4 1 6 3 5 5 2 6 4 7 5 3 2 4 6 5 7 6 7 7 9 13 15 15 14 13 12 10 9 8 9 10 10 10 11 11 11 11 11 11
8 4 8 10 6 8 5 7 4 5 1 6 12 12 3 5 6 6 3 4 6 7 8 7 6 10 17 18 16 14 13 13 12 12 11 11 11 12 13 14 14 13 12 11
11 6 3 0 4 7 6 10 16 13 26 9 25 13 17 9 10 8 6 5 6 8 8 9 8 7 17 17 17 16 15 16 16 15 14 14 14 14 14 15 14 13 12 12
10 3 6 3 5 5 4 18 24 30 19 22 15 20 10 9 6 6 8 9 9 9 10 9 8 12 19 22 22 20 19 19 19 20 18 18 17 17 16 16 16 15 14 13
13 7 6 8 5 6 7 23 19 20 17 25 17 34 7 5 8 10 11 10 11 12 12 11 15 17 22 29 28 27 25 22 22 22 21 19 18 19 19 17 17 16 16 16
11 14 3 3 1 5 11 14 17 22 16 22 20 21 7 9 9 13 13 10 11 11 11 10 13 20 26 28 27 25 24 24 23 22 21 20 20 21 20 19 18 19 18 16
3 8 3 7 4 7 16 6 7 10 21 17 22 25 17 7 3 18 9 11 14 13 14 18 24 23 27 29 29 26 25 23 23 22 21 21 22 23 23 24 23 22 19 17
3 6 8 3 7 11 3 6 10 5 20 15 22 26 20 7 10 23 10 8 11 11 11 15 20 25 28 30 31 29 27 26 24 22 22 21 21 23 23 22 21 21 18 16
4 3 14 3 5 10 6 4 9 9 8 5 11 17 12 10 16 3 5 4 4 8 11 13 22 27 30 32 33 31 29 27 24 22 21 22 22 22 22 22 21 19 16 14
10 10 8 4 5 17 6 4 15 5 1 5 6 6 8 7 3 3 3 4 6 6 9 15 19 21 27 32 34 29 28 26 26 25 25 24 23 22 20 20 18 16 15 14
4 8 7 12 9 3 5 1 2 3 4 4 3 2 3 5 6 6 5 6 4 7 14 17 21 20 21 26 28 27 26 28 28 27 26 25 22 22 21 18 16 16 15 14
3 1 4 4 5 5 8 1 2 2 3 3 1 3 5 5 6 3 6 5 5 6 9 15 23 22 21 23 24 26 30 30 30 29 27 25 24 22 19 17 15 14 14 12
3 7 6 3 2 4 1 2 3 3 4 5 5 4 1 4 4 5 5 6 6 8 9 16 19 22 25 24 24 28 31 31 30 28 26 24 22 21 19 15 14 13 11 8
2 3 7 4 4 3 3 6 4 5 4 5 4 3 3 1 3 2 3 4 8 11 14 16 18 23 25 25 25 28 28 30 31 29 27 26 23 20 20 18 15 10 10 8
Wind_Direction
190 138 189 190 179 172 174 175 175 231 190 146 210 248 250 253 236 233 234 223 228 230 234 234 229 224 221 221 219 219 217 215 215 211 220 223 226 228 230 233 235 237 238 235
86 210 208 184 192 156 154 159 216 306 157 143 213 253 251 243 235 212 227 240 239 235 238 239 222 217 217 219 219 216 217 216 217 214 215 220 226 231 236 236 239 239 237 239
162 215 158 182 189 180 190 172 169 198 156 63 338 286 254 256 237 232 239 232 236 225 227 229 222 216 215 214 218 216 216 217 218 218 216 216 221 228 235 238 240 240 242 242
197 210 164 176 197 153 195 188 154 146 147 199 152 268 301 261 258 223 240 239 239 227 226 225 228 227 219 219 218 219 219 219 220 218 215 213 210 212 221 229 239 244 244 245
231 161 149 184 190 172 220 138 144 141 123 92 310 65 273 275 270 252 241 238 237 231 205 220 229 237 230 220 216 215 219 220 220 219 219 218 215 221 224 226 232 238 246 251
192 198 171 184 136 169 147 91 48 56 84 263 199 174 251 212 222 261 280 257 246 233 215 210 203 186 180 191 202 206 207 211 219 222 223 224 220 220 221 225 225 238 240 251
146 195 190 149 107 60 130 105 39 2 306 225 159 205 243 251 258 230 259 261 245 173 154 151 152 159 155 164 187 208 216 217 211 210 219 227 232 232 227 230 236 236 238 239
174 202 184 177 166 166 176 161 157 183 201 220 116 223 248 243 278 242 263 204 155 153 171 167 167 165 157 184 216 237 244 243 237 231 223 218 224 233 234 237 243 246 251 250
152 208 330 173 156 156 198 196 153 105 34 59 230 288 303 262 263 246 204 164 197 197 183 173 162 168 173 177 185 198 209 221 229 231 227 224 221 224 228 231 241 247 249 254
180 137 329 157 102 344 195 145 91 3 131 240 254 257 226 263 244 215 209 207 215 196 191 186 177 178 176 170 177 185 193 191 190 194 199 207 215 219 216 219 227 226 224 233
125 100 267 155 213 169 140 182 152 137 158 181 199 249 217 206 222 200 227 203 202 203 206 191 179 178 176 175 179 180 190 194 196 186 184 184 184 185 183 187 191 203 216 217
100 114 167 199 287 237 244 185 191 174 217 239 166 245 194 216 222 214 225 204 207 208 194 182 178 177 178 183 187 193 190 198 193 192 189 175 169 163 166 181 183 185 180 180
170 181 91 46 328 197 219 177 171 106 75 205 147 260 352 131 151 221 217 170 184 175 165 179 186 193 194 196 196 197 194 194 183 177 171 169 171 171 167 171 172 172 169 167
131 167 171 190 191 132 174 187 198 136 136 215 232 234 226 224 194 217 175 175 171 186 193 197 196 200 203 201 198 193 192 192 181 179 171 167 167 164 162 161 156 155 152 153
161 183 150 229 166 147 164 179 190 204 220 191 246 245 218 213 206 209 213 193 188 206 208 208 200 200 203 201 199 198 199 191 181 179 175 175 172 166 163 159 155 152 151 149
183 200 129 251 124 141 174 200 201 212 210 239 250 281 129 204 197 178 203 205 211 218 222 210 201 200 205 202 199 195 193 189 184 179 179 180 176 175 175 167 157 154 154 151
170 130 173 214 162 106 287 215 204 217 207 221 229 241 117 157 188 213 225 209 210 222 223 205 205 205 201 203 200 195 189 186 181 179 178 177 175 174 171 161 159 155 152 146
165 188 110 131 79 187 247 183 188 207 216 220 243 254 169 220 213 222 216 203 216 222 222 211 201 203 207 203 199 196 188 187 181 178 177 177 176 176 165 160 154 147 141 139
209 163 120 148 206 286 275 182 150 171 242 214 228 248 245 218 285 260 184 214 220 216 221 217 210 201 198 197 195 188 182 184 181 180 179 179 180 173 161 156 155 149 147 143
68 186 165 142 163 216 343 188 159 104 263 190 213 237 238 129 236 259 193 205 223 222 204 198 197 193 192 191 188 182 180 181 182 182 180 180 177 169 162 157 154 148 146 137
119 73 199 159 219 275 232 157 131 157 251 223 203 225 223 196 226 231 170 165 184 186 187 193 185 179 186 182 181 180 182 184 180 178 174 174 172 168 161 159 155 149 142 141
164 162 196 137 214 254 160 115 178 199 221 195 189 199 201 223 168 194 205 155 162 144 136 159 157 168 177 180 180 176 179 178 175 174 170 167 166 165 162 164 154 151 151 151
198 193 168 186 207 212 190 262 22 165 163 201 189 238 215 166 191 177 168 140 144 150 145 159 159 155 168 177 186 176 178 173 171 167 165 166 165 165 167 166 163 159 164 166
245 137 161 106 190 190 173 166 280 217 176 139 109 146 167 175 163 167 151 141 131 137 147 156 154 149 164 178 183 188 175 174 171 169 168 168 169 168 168 170 170 173 174 172
204 140 156 278 83 79 54 187 159 86 78 83 55 26 323 141 190 184 161 142 145 151 160 166 161 161 169 177 181 182 178 176 172 172 171 172 173 169 168 170 169 174 170 181
192 188 190 206 165 134 140 134 119 112 94 73 88 70 20 330 200 161 167 150 158 166 168 172 176 174 175 177 176 177 180 181 176 175 177 178 176 176 174 167 150 139 152 146